Estatísticas do Tribal Wars: br87: Ennoblements

As conquistas dispostas nesta página são ao VIVO (quando uma aldeia é conquistada, será mostrada). Significa que ao serem mostradas aqui, podem não ser mostradas noutras partes do site durante até 1 hora.

AldeiaPontosProprietário antigoNovo proprietárioData/Tempo
0571 Déby (526|445) K459,665ogleenmorreu [SHOW]- Homer [[HERO]]2018-11-14 - 23:43:09
0410 - [H E R O] (527|485) K459,486fit Guilherme fit [[H]]fit Guilherme fit [[H]]2018-11-14 - 23:30:54
0410 - [H E R O] (527|485) K459,486Urso Assassino [[HERO]]fit Guilherme fit [[H]]2018-11-14 - 23:30:54
088 | Bolsonaro Opressor (535|462) K459,152Legendary Gusty [[H]]Legendary Gusty [[H]]2018-11-14 - 23:28:40
088 | Bolsonaro Opressor (535|462) K459,152Legendary Gusty [[H]]Legendary Gusty [[H]]2018-11-14 - 23:28:39
088 | Bolsonaro Opressor (535|462) K459,152Legendary Gusty [[H]]Legendary Gusty [[H]]2018-11-14 - 23:28:39
088 | Bolsonaro Opressor (535|462) K459,152- TopaComBolsonaro? [SHOW]Legendary Gusty [[H]]2018-11-14 - 23:28:39
0199 - [H E R O] (514|452) K458,712Urso Assassino [[HERO]]- TopaComBolsonaro? [SHOW]2018-11-14 - 23:25:50
K65 098 (526|684) K6510,136Michael Sc0field [$$$]hitto [[H]]2018-11-14 - 23:09:01
0476 Déby (536|470) K459,736Urso Assassino [[HERO]]ogleenmorreu [SHOW]2018-11-14 - 23:03:15
0329 - [H E R O] (529|476) K459,306Urso Assassino [[HERO]]ogleenmorreu [SHOW]2018-11-14 - 23:00:07
0230 - [H E R O] (539|460) K459,793Urso Assassino [[HERO]]Fear The Beard [SHOW]2018-11-14 - 22:59:53
0232 - [H E R O] (536|461) K459,273ogleenmorreu [SHOW]ogleenmorreu [SHOW]2018-11-14 - 22:59:22
0232 - [H E R O] (536|461) K459,273ogleenmorreu [SHOW]ogleenmorreu [SHOW]2018-11-14 - 22:59:22
0232 - [H E R O] (536|461) K459,273Urso Assassino [[HERO]]ogleenmorreu [SHOW]2018-11-14 - 22:59:22
0770 - [H E R O] (534|464) K459,281ogleenmorreu [SHOW]ogleenmorreu [SHOW]2018-11-14 - 22:59:20
0770 - [H E R O] (534|464) K459,281Urso Assassino [[HERO]]ogleenmorreu [SHOW]2018-11-14 - 22:59:20
0218 - [H E R O] (545|452) K459,341Urso Assassino [[HERO]]Fear The Beard [SHOW]2018-11-14 - 22:59:04
0475 Déby (527|477) K459,290ogleenmorreu [SHOW]ogleenmorreu [SHOW]2018-11-14 - 22:59:02
0475 Déby (527|477) K459,290ogleenmorreu [SHOW]ogleenmorreu [SHOW]2018-11-14 - 22:59:02
0477 Déby (531|467) K459,378ogleenmorreu [SHOW]ogleenmorreu [SHOW]2018-11-14 - 22:58:37
0477 Déby (531|467) K459,378Urso Assassino [[HERO]]ogleenmorreu [SHOW]2018-11-14 - 22:58:37
022 | Bolsonaro Opressor (534|454) K459,459- TopaComBolsonaro? [SHOW]- TopaComBolsonaro? [SHOW]2018-11-14 - 22:58:06
022 | Bolsonaro Opressor (534|454) K459,459- TopaComBolsonaro? [SHOW]- TopaComBolsonaro? [SHOW]2018-11-14 - 22:58:06
022 | Bolsonaro Opressor (534|454) K459,459Urso Assassino [[HERO]]- TopaComBolsonaro? [SHOW]2018-11-14 - 22:58:06
023 | Bolsonaro Opressor (535|453) K459,358- TopaComBolsonaro? [SHOW]- TopaComBolsonaro? [SHOW]2018-11-14 - 22:58:01
023 | Bolsonaro Opressor (535|453) K459,358Urso Assassino [[HERO]]- TopaComBolsonaro? [SHOW]2018-11-14 - 22:58:01
0726 - [H E R O] (528|459) K458,358Urso Assassino [[HERO]]Fear The Beard [SHOW]2018-11-14 - 22:57:34
571 S[H]OG (669|543) K569,914Urso Assassino [[HERO]]B4B4 Y4G4 [[H]]2018-11-14 - 22:56:58
JERONIMO (523|454) K459,167Fear The Beard [SHOW]Fear The Beard [SHOW]2018-11-14 - 22:56:35
JERONIMO (523|454) K459,167Fear The Beard [SHOW]Fear The Beard [SHOW]2018-11-14 - 22:56:35
JERONIMO (523|454) K459,167Fear The Beard [SHOW]Fear The Beard [SHOW]2018-11-14 - 22:56:35
0766 - [H E R O] (532|462) K459,371Urso Assassino [[HERO]]Fear The Beard [SHOW]2018-11-14 - 22:55:43
0324 - [H E R O] (524|476) K459,273Urso Assassino [[HERO]]ogleenmorreu [SHOW]2018-11-14 - 22:54:12
088 | Bolsonaro Opressor (535|462) K459,152Urso Assassino [[HERO]]- TopaComBolsonaro? [SHOW]2018-11-14 - 22:54:00
0350 - [H E R O] (518|482) K459,426Urso Assassino [[HERO]]-Thunderbird [SHOW]2018-11-14 - 22:53:46
0734 - [H E R O] (538|459) K459,624Urso Assassino [[HERO]]Fear The Beard [SHOW]2018-11-14 - 22:52:33
081 | Bolsonaro Opressor (536|455) K459,459Urso Assassino [[HERO]]- TopaComBolsonaro? [SHOW]2018-11-14 - 22:52:02
0213 - [H E R O] (543|453) K459,517Urso Assassino [[HERO]]Fear The Beard [SHOW]2018-11-14 - 22:51:06
0762 - [H E R O] (525|460) K459,292Fear The Beard [SHOW]Fear The Beard [SHOW]2018-11-14 - 22:50:40
0762 - [H E R O] (525|460) K459,292Fear The Beard [SHOW]Fear The Beard [SHOW]2018-11-14 - 22:50:40
0762 - [H E R O] (525|460) K459,292Fear The Beard [SHOW]Fear The Beard [SHOW]2018-11-14 - 22:50:40
0719 - [H E R O] (524|458) K458,481Urso Assassino [[HERO]]Fear The Beard [SHOW]2018-11-14 - 22:50:27
0762 - [H E R O] (525|460) K459,292Urso Assassino [[HERO]]Fear The Beard [SHOW]2018-11-14 - 22:50:23
0725 - [H E R O] (525|459) K459,306Urso Assassino [[HERO]]Fear The Beard [SHOW]2018-11-14 - 22:50:14
0209 - [H E R O] (537|453) K459,414Urso Assassino [[HERO]]Fear The Beard [SHOW]2018-11-14 - 22:50:05
0212 - [H E R O] (540|453) K459,320Fear The Beard [SHOW]Fear The Beard [SHOW]2018-11-14 - 22:50:05
0212 - [H E R O] (540|453) K459,320Fear The Beard [SHOW]Fear The Beard [SHOW]2018-11-14 - 22:50:04
0212 - [H E R O] (540|453) K459,320Urso Assassino [[HERO]]Fear The Beard [SHOW]2018-11-14 - 22:50:04
0355 - [H E R O] (520|482) K459,353Urso Assassino [[HERO]]-Thunderbird [SHOW]2018-11-14 - 22:48:05
079 | Bolsonaro Opressor (527|455) K459,736- TopaComBolsonaro? [SHOW]- TopaComBolsonaro? [SHOW]2018-11-14 - 22:47:20
079 | Bolsonaro Opressor (527|455) K459,736Urso Assassino [[HERO]]- TopaComBolsonaro? [SHOW]2018-11-14 - 22:47:20
0289 - [H E R O] (535|471) K459,273Urso Assassino [[HERO]]ogleenmorreu [SHOW]2018-11-14 - 22:46:16
082 | Bolsonaro Opressor (545|456) K458,777Urso Assassino [[HERO]]- TopaComBolsonaro? [SHOW]2018-11-14 - 22:45:49
0768 - [H E R O] (532|463) K459,476Urso Assassino [[HERO]]Fear The Beard [SHOW]2018-11-14 - 22:44:48
0439 - [H E R O] (522|490) K459,379Urso Assassino [[HERO]]-Thunderbird [SHOW]2018-11-14 - 22:36:55
- 0010 - S[H]OG (525|493) K459,924Urso Assassino [[HERO]]Legendary Gusty [[H]]2018-11-14 - 22:35:46
0478 Déby (522|432) K459,924Urso Assassino [[HERO]]ogleenmorreu [SHOW]2018-11-14 - 22:35:40
0764 - [H E R O] (529|463) K459,273Urso Assassino [[HERO]]Fear The Beard [SHOW]2018-11-14 - 22:35:38
- 0009 - S[H]OG (517|497) K4510,003nicolarag [[HERO]]Legendary Gusty [[H]]2018-11-14 - 22:34:08
0473 Déby (535|449) K459,759Urso Assassino [[HERO]]ogleenmorreu [SHOW]2018-11-14 - 22:33:54
0255 - [H E R O] (525|467) K459,273ogleenmorreu [SHOW]ogleenmorreu [SHOW]2018-11-14 - 22:33:18
0255 - [H E R O] (525|467) K459,273Urso Assassino [[HERO]]ogleenmorreu [SHOW]2018-11-14 - 22:33:18
0475 Déby (527|477) K459,290Urso Assassino [[HERO]]ogleenmorreu [SHOW]2018-11-14 - 22:30:00
0473 Vitinho (525|476) K459,321Urso Assassino [[HERO]]ogleenmorreu [SHOW]2018-11-14 - 22:21:51
Toalha (380|288) K239,881Husky do Caos [ex-BAG]Imaginary Friend [ex-PÃO]2018-11-14 - 22:19:41
086 | Bolsonaro Opressor (534|462) K459,739Urso Assassino [[HERO]]- TopaComBolsonaro? [SHOW]2018-11-14 - 22:19:31
078 | Bolsonaro Opressor (529|458) K459,026Urso Assassino [[HERO]]- TopaComBolsonaro? [SHOW]2018-11-14 - 22:19:05
URSINHO SEM TORRE (524|493) K4510,860Urso Assassino [[HERO]]fit Guilherme fit [[H]]2018-11-14 - 22:19:00
076 | Bolsonaro Opressor (523|455) K459,644Urso Assassino [[HERO]]- TopaComBolsonaro? [SHOW]2018-11-14 - 22:15:01
Toalha (375|285) K239,831Husky do Caos [ex-BAG]Imaginary Friend [ex-PÃO]2018-11-14 - 22:14:09
0169 - [H E R O] (536|448) K459,763Urso Assassino [[HERO]]ogleenmorreu [SHOW]2018-11-14 - 22:12:59
JERONIMO (531|466) K459,827Urso Assassino [[HERO]]Fear The Beard [SHOW]2018-11-14 - 22:12:31
0474 Déby (532|479) K459,743Urso Assassino [[HERO]]ogleenmorreu [SHOW]2018-11-14 - 22:11:09

2018-11-15 00:08:20 ART

Site by Clash Rank - Report error - Privacy policy - 2.1 272